Notices

What's New in latest Release from April 7th, 2021:

- Updated Glossary, including Speed of Maximum Gust, and Total Hourly Precipitation

- Updated national and regional climate services offices contacts and prices information

- Addition of station inventory lists for 1981-2010, 1971-2000, and 1961-1990 Normals.

If you haven't already, please take our survey and provide feedback about our website: https://eccc.sondage-survey.ca/f/LanguageSelection.aspx?s=442ca660-fcf1-47c0-95a9-59707d6fd709

Hourly Data Report for December 06, 2019

SAINT JOHN A
NEW BRUNSWICK
Current Station Operator: NAVCAN

45°18'58.000" N
65°53'24.000" W
108.80 m
8104901
71609
YSJ

Download Data

Hourly Data (December 2019)
Hourly Data Report for December 6, 2019
TIME
LST
Temp Definition
°C
Dew Point Definition
°C
Rel Hum Definition
%
Precip. Amount Definition
mm

Wind Dir Definition
10's deg

Wind Spd Definition
km/h
Visibility Definition
km
Stn Press Definition
kPa
Hmdx Definition


Wind Chill Definition


Weather Definition


00:00 -3.1 -4.4 90   27 13 24.1 99.12   -8 LegendNANA
01:00 -3.2 -4.7 89   28 15 24.1 99.15   -8 LegendNANA
02:00 -3.3 -5.0 88   25 7 24.1 99.26   -6 Mainly Clear
03:00 -3.0 -5.0 86   29 17 24.1 99.31   -9 LegendNANA
04:00 -3.2 -5.0 87   27 13 24.1 99.38   -8 LegendNANA
05:00 -3.1 -5.1 86   27 13 24.1 99.45   -8 Mostly Cloudy
06:00 -3.8 -5.3 89   25 7 24.1 99.52   -7 LegendNANA
07:00 -4.9 -6.3 90   24 8 24.1 99.59   -8 LegendNANA
08:00 -4.8 -6.3 89   29 13 24.1 99.66   -10 Mainly Clear
09:00 -4.1 -6.4 84   28 13 24.1 99.72   -9 LegendNANA
10:00 -3.7 -6.5 81   28 17 24.1 99.80   -9 LegendNANA
11:00 -2.7 -7.0 73   29 19 24.1 99.84   -8 Mostly Cloudy
12:00 -2.2 -7.3 68   27 23 24.1 99.78   -8 LegendNANA
13:00 -1.7 -7.3 66   28 21 24.1 99.76   -8 LegendNANA
14:00 -1.2 -7.4 63   28 18 24.1 99.75   -6 Mostly Cloudy
15:00 -1.5 -7.1 66   26 17 24.1 99.79   -7 LegendNANA
16:00 -2.6 -7.0 72   25 16 24.1 99.87   -8 LegendNANA
17:00 -3.2 -7.1 75   27 9 24.1 99.94   -7 Mostly Cloudy
18:00 -4.0 -7.6 76   26 8 24.1 100.00   -7 LegendNANA
19:00 -4.3 -7.8 77   28 8 24.1 100.06   -8 LegendNANA
20:00 -4.7 -7.7 79   28 8 24.1 100.10   -8 Mostly Cloudy
21:00 -4.1 -8.1 74   29 13 24.1 100.12   -9 LegendNANA
22:00 -4.5 -8.2 75   30 12 24.1 100.14   -9 LegendNANA
23:00 -4.7 -8.4 75   30 7 24.1 100.14   -8 Mostly Cloudy

Notes on Data Quality.

Legend

  • E = Estimated
  • M = Missing
  • NA = Not Available*
  • [empty] = Indicates an unobserved value
Date modified: